ACA677 CYYT-CYUL

Flight info

Callsign ACA677
Flight time 2h 12m
Altitude 38000
Route TEXED DCT TAGRA DCT MIILS DCT KEBIG ROCKT3
Aircraft A320/M-SDE3FGHIRWY/LB1

Departure

Time 2026-04-22 21:34
Airport St. John's International Airport (CYYT)

Arrival

Time 2026-04-22 23:46
Airport Montreal / Pierre Elliott Trudeau International Airport (CYUL)
Time Latitude Longitude Altitude Speed Heading
2026-04-22 21:15 47.61391 -52.74329 449 ft 0 kts 201°
2026-04-22 21:24 47.61392 -52.74329 449 ft 2 kts 201°
2026-04-22 21:25 47.61416 -52.74317 449 ft 4 kts 190°
2026-04-22 21:25 47.61442 -52.74314 449 ft 4 kts 169°
2026-04-22 21:25 47.61465 -52.74328 449 ft 4 kts 124°
2026-04-22 21:25 47.61471 -52.74342 449 ft 1 kts 113°
2026-04-22 21:26 47.61471 -52.74343 449 ft 0 kts 113°
2026-04-22 21:28 47.61454 -52.74260 449 ft 12 kts 102°
2026-04-22 21:29 47.61416 -52.74130 449 ft 17 kts 113°
2026-04-22 21:29 47.61346 -52.73998 450 ft 14 kts 152°
2026-04-22 21:29 47.61315 -52.73974 451 ft 2 kts 152°
2026-04-22 21:29 47.61297 -52.73960 451 ft 10 kts 152°
2026-04-22 21:30 47.61263 -52.73881 452 ft 12 kts 100°
2026-04-22 21:30 47.61335 -52.73840 450 ft 18 kts 346°
2026-04-22 21:30 47.61516 -52.73860 448 ft 33 kts 359°
2026-04-22 21:30 47.61766 -52.73876 448 ft 36 kts 357°
2026-04-22 21:31 47.62010 -52.73898 449 ft 35 kts 355°
2026-04-22 21:31 47.62245 -52.73923 450 ft 33 kts 356°
2026-04-22 21:31 47.62447 -52.73937 449 ft 22 kts 357°
2026-04-22 21:31 47.62515 -52.73976 450 ft 11 kts 302°
2026-04-22 21:32 47.62514 -52.74000 451 ft 0 kts 255°
2026-04-22 21:32 47.62512 -52.74024 451 ft 0 kts 265°
2026-04-22 21:33 47.62500 -52.74230 453 ft 56 kts 265°
2026-04-22 21:33 47.62465 -52.75153 452 ft 120 kts 265°
2026-04-22 21:34 47.62407 -52.76599 637 ft 148 kts 269°
2026-04-22 21:34 47.62388 -52.78040 1400 ft 139 kts 267°
2026-04-22 21:34 47.62331 -52.79487 1915 ft 142 kts 263°
2026-04-22 21:34 47.62261 -52.80977 2288 ft 154 kts 262°
2026-04-22 21:35 47.62177 -52.82686 2520 ft 182 kts 261°
2026-04-22 21:35 47.62079 -52.84684 2815 ft 205 kts 261°
2026-04-22 21:35 47.61966 -52.86912 3154 ft 227 kts 260°
2026-04-22 21:35 47.61831 -52.89352 3516 ft 252 kts 259°
2026-04-22 21:36 47.61683 -52.92061 4181 ft 266 kts 259°
2026-04-22 21:36 47.61540 -52.94790 5038 ft 271 kts 258°
2026-04-22 21:36 47.61394 -52.97600 5942 ft 276 kts 257°
2026-04-22 21:36 47.61244 -53.00474 6764 ft 281 kts 257°
2026-04-22 21:37 47.61091 -53.03385 7595 ft 285 kts 257°
2026-04-22 21:37 47.60935 -53.06343 8451 ft 289 kts 256°
2026-04-22 21:37 47.60775 -53.09343 9300 ft 294 kts 256°
2026-04-22 21:37 47.60611 -53.12381 10090 ft 298 kts 256°
2026-04-22 21:38 47.60432 -53.15539 10480 ft 318 kts 256°
2026-04-22 21:38 47.60234 -53.18871 10833 ft 337 kts 256°
2026-04-22 21:38 47.60038 -53.22374 11495 ft 344 kts 257°
2026-04-22 21:38 47.59847 -53.25951 12224 ft 350 kts 257°
2026-04-22 21:39 47.59656 -53.29583 12927 ft 355 kts 257°
2026-04-22 21:39 47.59460 -53.33214 13619 ft 361 kts 257°
2026-04-22 21:39 47.59254 -53.36954 14264 ft 365 kts 257°
2026-04-22 21:39 47.59042 -53.40738 14908 ft 370 kts 257°
2026-04-22 21:40 47.58827 -53.44533 15543 ft 374 kts 256°
2026-04-22 21:40 47.58605 -53.48391 16156 ft 378 kts 256°
2026-04-22 21:40 47.58378 -53.52319 16807 ft 382 kts 256°
2026-04-22 21:40 47.58150 -53.56244 17436 ft 386 kts 256°
2026-04-22 21:41 47.57919 -53.60249 18051 ft 390 kts 256°
2026-04-22 21:41 47.57687 -53.64257 18570 ft 394 kts 256°
2026-04-22 21:41 47.57448 -53.68296 19083 ft 399 kts 256°
2026-04-22 21:41 47.57204 -53.72416 19611 ft 403 kts 256°
2026-04-22 21:42 47.56958 -53.76551 20125 ft 408 kts 256°
2026-04-22 21:42 47.56707 -53.80775 20637 ft 412 kts 255°
2026-04-22 21:42 47.56449 -53.85054 21156 ft 417 kts 255°
2026-04-22 21:42 47.56187 -53.89350 21674 ft 421 kts 255°
2026-04-22 21:43 47.55921 -53.93645 22174 ft 426 kts 255°
2026-04-22 21:43 47.55648 -53.98042 22678 ft 430 kts 254°
2026-04-22 21:43 47.55369 -54.02491 23178 ft 435 kts 254°
2026-04-22 21:43 47.55088 -54.06988 23618 ft 439 kts 254°
2026-04-22 21:44 47.54807 -54.11468 24053 ft 442 kts 254°
2026-04-22 21:44 47.54505 -54.16009 24508 ft 442 kts 252°
2026-04-22 21:44 47.54108 -54.20537 24949 ft 441 kts 251°
2026-04-22 21:44 47.53630 -54.24963 25379 ft 441 kts 249°
2026-04-22 21:45 47.53087 -54.29447 25795 ft 442 kts 248°
2026-04-22 21:45 47.52521 -54.33953 26213 ft 444 kts 248°
2026-04-22 21:45 47.51958 -54.38480 26620 ft 447 kts 249°
2026-04-22 21:45 47.51414 -54.42976 27013 ft 449 kts 249°
2026-04-22 21:46 47.50878 -54.47562 27415 ft 452 kts 250°
2026-04-22 21:46 47.50359 -54.52117 27788 ft 455 kts 250°
2026-04-22 21:46 47.49835 -54.56750 28173 ft 457 kts 250°
2026-04-22 21:46 47.49306 -54.61388 28533 ft 459 kts 250°
2026-04-22 21:47 47.48767 -54.66072 28886 ft 462 kts 250°
2026-04-22 21:47 47.48225 -54.70725 29232 ft 464 kts 250°
2026-04-22 21:47 47.47669 -54.75448 29569 ft 466 kts 250°
2026-04-22 21:47 47.47105 -54.80205 29899 ft 469 kts 250°
2026-04-22 21:48 47.46539 -54.84969 30179 ft 471 kts 250°
2026-04-22 21:48 47.45972 -54.89741 30472 ft 472 kts 250°
2026-04-22 21:48 47.45408 -54.94485 30758 ft 473 kts 250°
2026-04-22 21:48 47.44838 -54.99286 31033 ft 474 kts 250°
2026-04-22 21:49 47.44259 -55.04117 31297 ft 475 kts 250°
2026-04-22 21:49 47.43688 -55.08871 31661 ft 474 kts 250°
2026-04-22 21:49 47.43119 -55.13658 32052 ft 472 kts 250°
2026-04-22 21:49 47.42549 -55.18439 32419 ft 470 kts 250°
2026-04-22 21:50 47.41973 -55.23185 32795 ft 469 kts 250°
2026-04-22 21:50 47.41388 -55.27928 33142 ft 467 kts 250°
2026-04-22 21:50 47.40802 -55.32646 33514 ft 466 kts 250°
2026-04-22 21:50 47.40229 -55.37293 33870 ft 464 kts 250°
2026-04-22 21:51 47.39650 -55.41987 34185 ft 463 kts 251°
2026-04-22 21:51 47.39073 -55.46674 34466 ft 462 kts 251°
2026-04-22 21:51 47.38494 -55.51357 34742 ft 461 kts 251°
2026-04-22 21:52 47.37332 -55.60619 35263 ft 460 kts 251°
2026-04-22 21:52 47.36747 -55.65255 35516 ft 459 kts 252°
2026-04-22 21:52 47.36163 -55.69886 35769 ft 458 kts 252°
2026-04-22 21:52 47.35574 -55.74527 36021 ft 458 kts 252°
2026-04-22 21:53 47.34994 -55.79082 36252 ft 457 kts 252°
2026-04-22 21:53 47.34407 -55.83694 36483 ft 456 kts 252°
2026-04-22 21:53 47.33818 -55.88307 36717 ft 455 kts 252°
2026-04-22 21:53 47.33230 -55.92903 36945 ft 455 kts 252°
2026-04-22 21:54 47.32649 -55.97441 37168 ft 454 kts 252°
2026-04-22 21:54 47.32058 -56.02010 37380 ft 453 kts 252°
2026-04-22 21:54 47.31462 -56.06579 37592 ft 453 kts 253°
2026-04-22 21:54 47.30868 -56.11140 37799 ft 452 kts 253°
2026-04-22 21:55 47.30271 -56.15704 37869 ft 452 kts 253°
2026-04-22 21:55 47.29087 -56.24768 37881 ft 451 kts 253°
2026-04-22 21:56 47.27890 -56.33838 37889 ft 451 kts 253°
2026-04-22 21:56 47.26697 -56.42864 37899 ft 451 kts 253°
2026-04-22 21:57 47.25485 -56.51951 37917 ft 451 kts 252°
2026-04-22 21:57 47.24265 -56.60997 37940 ft 451 kts 252°
2026-04-22 21:58 47.23038 -56.70081 37963 ft 452 kts 252°
2026-04-22 21:58 47.21806 -56.79128 37974 ft 452 kts 252°
2026-04-22 21:59 47.20574 -56.88160 37992 ft 452 kts 252°
2026-04-22 21:59 47.19318 -56.97227 37999 ft 452 kts 252°
2026-04-22 22:00 47.18080 -57.06254 37999 ft 453 kts 256°
2026-04-22 22:00 47.17912 -57.15622 38019 ft 461 kts 265°
2026-04-22 22:01 47.18041 -57.25055 38021 ft 460 kts 265°
2026-04-22 22:01 47.18157 -57.34436 38025 ft 460 kts 265°
2026-04-22 22:02 47.18251 -57.43807 38028 ft 460 kts 265°
2026-04-22 22:02 47.18324 -57.51652 38027 ft 459 kts 265°
2026-04-22 22:03 47.18404 -57.61011 38029 ft 459 kts 265°
2026-04-22 22:03 47.18473 -57.70412 38034 ft 460 kts 265°
2026-04-22 22:04 47.18533 -57.79845 38032 ft 459 kts 265°
2026-04-22 22:04 47.18598 -57.89209 38021 ft 459 kts 265°
2026-04-22 22:05 47.18658 -57.98569 38026 ft 459 kts 265°
2026-04-22 22:05 47.18703 -58.07960 38028 ft 459 kts 265°
2026-04-22 22:06 47.18731 -58.17310 38023 ft 458 kts 265°
2026-04-22 22:06 47.18756 -58.26722 38043 ft 459 kts 265°
2026-04-22 22:07 47.18782 -58.36073 38044 ft 459 kts 265°
2026-04-22 22:07 47.18799 -58.45402 38061 ft 458 kts 265°
2026-04-22 22:08 47.18800 -58.54792 38060 ft 458 kts 265°
2026-04-22 22:08 47.18796 -58.64163 38071 ft 458 kts 265°
2026-04-22 22:09 47.18785 -58.73473 38071 ft 458 kts 265°
2026-04-22 22:09 47.18766 -58.82864 38081 ft 458 kts 265°
2026-04-22 22:10 47.18745 -58.92182 38081 ft 458 kts 265°
2026-04-22 22:10 47.18712 -59.01561 38097 ft 457 kts 265°
2026-04-22 22:11 47.18667 -59.10879 38105 ft 457 kts 265°
2026-04-22 22:11 47.18628 -59.20192 38108 ft 457 kts 265°
2026-04-22 22:12 47.18573 -59.29545 38110 ft 456 kts 265°
2026-04-22 22:12 47.18505 -59.38823 38128 ft 455 kts 265°
2026-04-22 22:13 47.18432 -59.48118 38123 ft 455 kts 264°
2026-04-22 22:13 47.18350 -59.57438 38128 ft 455 kts 264°
2026-04-22 22:14 47.18272 -59.66694 38131 ft 454 kts 265°
2026-04-22 22:14 47.18180 -59.76002 38139 ft 454 kts 264°
2026-04-22 22:15 47.18080 -59.85243 38136 ft 453 kts 264°
2026-04-22 22:15 47.17969 -59.94530 38144 ft 453 kts 264°
2026-04-22 22:16 47.17855 -60.03741 38141 ft 453 kts 264°
2026-04-22 22:16 47.17737 -60.12949 38148 ft 452 kts 264°
2026-04-22 22:17 47.17605 -60.22216 38146 ft 452 kts 264°
2026-04-22 22:17 47.17473 -60.31419 38154 ft 452 kts 264°
2026-04-22 22:18 47.17329 -60.40690 38158 ft 452 kts 264°
2026-04-22 22:18 47.17174 -60.49891 38168 ft 452 kts 264°
2026-04-22 22:19 47.17009 -60.59159 38165 ft 452 kts 264°
2026-04-22 22:19 47.16845 -60.68335 38177 ft 451 kts 264°
2026-04-22 22:20 47.16669 -60.77597 38175 ft 451 kts 264°
2026-04-22 22:20 47.16495 -60.86792 38180 ft 451 kts 264°
2026-04-22 22:21 47.16304 -60.96008 38183 ft 451 kts 263°
2026-04-22 22:21 47.16110 -61.05196 38184 ft 451 kts 264°
2026-04-22 22:22 47.15908 -61.14376 38186 ft 450 kts 263°
2026-04-22 22:22 47.15694 -61.23596 38190 ft 450 kts 263°
2026-04-22 22:23 47.15473 -61.32679 38191 ft 450 kts 263°
2026-04-22 22:23 47.15250 -61.41894 38197 ft 449 kts 263°
2026-04-22 22:24 47.15027 -61.51041 38194 ft 449 kts 263°
2026-04-22 22:24 47.14783 -61.60184 38195 ft 449 kts 263°
2026-04-22 22:25 47.14534 -61.69358 38193 ft 449 kts 263°
2026-04-22 22:25 47.14285 -61.78547 38196 ft 449 kts 263°
2026-04-22 22:26 47.14027 -61.87672 38194 ft 448 kts 263°
2026-04-22 22:26 47.13761 -61.96774 38201 ft 448 kts 263°
2026-04-22 22:27 47.13486 -62.05936 38202 ft 447 kts 263°
2026-04-22 22:27 47.13206 -62.15066 38207 ft 446 kts 263°
2026-04-22 22:28 47.12916 -62.24130 38198 ft 446 kts 263°
2026-04-22 22:28 47.12614 -62.33253 38201 ft 446 kts 263°
2026-04-22 22:29 47.12318 -62.42316 38200 ft 446 kts 263°
2026-04-22 22:29 47.12012 -62.51378 38207 ft 446 kts 263°
2026-04-22 22:30 47.11698 -62.60506 38209 ft 446 kts 263°
2026-04-22 22:30 47.11371 -62.69568 38217 ft 446 kts 263°
2026-04-22 22:31 47.11035 -62.78659 38213 ft 445 kts 263°
2026-04-22 22:31 47.10699 -62.87700 38218 ft 445 kts 263°
2026-04-22 22:32 47.10356 -62.96809 38217 ft 445 kts 263°
2026-04-22 22:32 47.10008 -63.05890 38214 ft 445 kts 263°
2026-04-22 22:33 47.09646 -63.14895 38217 ft 444 kts 263°
2026-04-22 22:33 47.09279 -63.23977 38220 ft 444 kts 263°
2026-04-22 22:34 47.08910 -63.33016 38216 ft 444 kts 263°
2026-04-22 22:34 47.08535 -63.42025 38215 ft 443 kts 263°
2026-04-22 22:35 47.08151 -63.51076 38212 ft 443 kts 263°
2026-04-22 22:35 47.07757 -63.60056 38214 ft 443 kts 263°
2026-04-22 22:36 47.07355 -63.69112 38214 ft 442 kts 263°
2026-04-22 22:36 47.06954 -63.78075 38215 ft 442 kts 263°
2026-04-22 22:37 47.06539 -63.87092 38211 ft 441 kts 263°
2026-04-22 22:37 47.06112 -63.96077 38213 ft 441 kts 263°
2026-04-22 22:38 47.05683 -64.05008 38210 ft 441 kts 263°
2026-04-22 22:38 47.05256 -64.13981 38202 ft 440 kts 263°
2026-04-22 22:39 47.04816 -64.22949 38204 ft 439 kts 263°
2026-04-22 22:39 47.04372 -64.31852 38195 ft 439 kts 263°
2026-04-22 22:40 47.03923 -64.40747 38206 ft 439 kts 263°
2026-04-22 22:40 47.03460 -64.49718 38195 ft 439 kts 263°
2026-04-22 22:41 47.02995 -64.58602 38209 ft 439 kts 263°
2026-04-22 22:41 47.02525 -64.67491 38208 ft 438 kts 263°
2026-04-22 22:42 47.02047 -64.76410 38197 ft 438 kts 263°
2026-04-22 22:42 47.01569 -64.85263 38198 ft 437 kts 263°
2026-04-22 22:43 47.01081 -64.94157 38192 ft 437 kts 263°
2026-04-22 22:43 47.00577 -65.03034 38193 ft 436 kts 263°
2026-04-22 22:44 47.00076 -65.11852 38187 ft 436 kts 263°
2026-04-22 22:44 46.99562 -65.20731 38186 ft 435 kts 263°
2026-04-22 22:45 46.99042 -65.29552 38182 ft 435 kts 263°
2026-04-22 22:45 46.98520 -65.38343 38180 ft 435 kts 264°
2026-04-22 22:46 46.97992 -65.47187 38174 ft 435 kts 263°
2026-04-22 22:46 46.97459 -65.55996 38170 ft 434 kts 263°
2026-04-22 22:47 46.96918 -65.64775 38167 ft 434 kts 263°
2026-04-22 22:47 46.96368 -65.73551 38163 ft 434 kts 263°
2026-04-22 22:48 46.95812 -65.82370 38156 ft 434 kts 264°
2026-04-22 22:48 46.95258 -65.91130 38155 ft 433 kts 263°
2026-04-22 22:49 46.94683 -65.99927 38151 ft 433 kts 263°
2026-04-22 22:49 46.94104 -66.08647 38147 ft 433 kts 263°
2026-04-22 22:50 46.93525 -66.17446 38147 ft 433 kts 263°
2026-04-22 22:50 46.92941 -66.26163 38144 ft 433 kts 263°
2026-04-22 22:51 46.92443 -66.33471 38145 ft 433 kts 264°
2026-04-22 22:51 46.91747 -66.43669 38142 ft 432 kts 264°
2026-04-22 22:52 46.91245 -66.50980 38142 ft 432 kts 264°
2026-04-22 22:52 46.90635 -66.59697 38143 ft 432 kts 264°
2026-04-22 22:53 46.90011 -66.68445 38135 ft 432 kts 264°
2026-04-22 22:53 46.89385 -66.77202 38142 ft 432 kts 264°
2026-04-22 22:54 46.88763 -66.85897 38135 ft 431 kts 264°
2026-04-22 22:54 46.88120 -66.94576 38141 ft 431 kts 264°
2026-04-22 22:55 46.87450 -67.03297 38133 ft 431 kts 261°
2026-04-22 22:55 46.85015 -67.15893 38130 ft 430 kts 253°
2026-04-22 22:56 46.83241 -67.24221 38126 ft 430 kts 253°
2026-04-22 22:56 46.81439 -67.32527 38124 ft 430 kts 251°
2026-04-22 22:57 46.80124 -67.36454 38122 ft 431 kts 237°
2026-04-22 22:57 46.78498 -67.40083 38108 ft 430 kts 245°
2026-04-22 22:57 46.76548 -67.48302 38111 ft 427 kts 254°
2026-04-22 22:58 46.74802 -67.56568 38102 ft 428 kts 254°
2026-04-22 22:58 46.73057 -67.64808 38100 ft 427 kts 254°
2026-04-22 22:59 46.71286 -67.73089 38097 ft 427 kts 254°
2026-04-22 22:59 46.69513 -67.81323 38092 ft 427 kts 254°
2026-04-22 23:00 46.67729 -67.89586 38089 ft 427 kts 254°
2026-04-22 23:00 46.65955 -67.97796 38090 ft 427 kts 254°
2026-04-22 23:01 46.64177 -68.06000 38101 ft 427 kts 254°
2026-04-22 23:01 46.62375 -68.14254 38103 ft 427 kts 254°
2026-04-22 23:02 46.60581 -68.22441 38110 ft 426 kts 254°
2026-04-22 23:02 46.58770 -68.30664 38125 ft 426 kts 254°
2026-04-22 23:03 46.56955 -68.38890 38124 ft 426 kts 254°
2026-04-22 23:03 46.55147 -68.47027 38124 ft 425 kts 254°
2026-04-22 23:04 46.53326 -68.55211 38118 ft 424 kts 255°
2026-04-22 23:04 46.51520 -68.63326 38101 ft 424 kts 255°
2026-04-22 23:05 46.49698 -68.71455 38100 ft 424 kts 255°
2026-04-22 23:05 46.47853 -68.79631 38087 ft 424 kts 255°
2026-04-22 23:06 46.46017 -68.87732 38078 ft 424 kts 255°
2026-04-22 23:06 46.44180 -68.95835 38075 ft 424 kts 255°
2026-04-22 23:07 46.42332 -69.03987 38071 ft 424 kts 255°
2026-04-22 23:07 46.40495 -69.12065 38073 ft 424 kts 255°
2026-04-22 23:08 46.38633 -69.20189 38076 ft 423 kts 255°
2026-04-22 23:08 46.36779 -69.28240 38065 ft 423 kts 255°
2026-04-22 23:09 46.34901 -69.36345 38076 ft 423 kts 255°
2026-04-22 23:09 46.33030 -69.44395 38072 ft 423 kts 255°
2026-04-22 23:10 46.31146 -69.52465 38070 ft 423 kts 255°
2026-04-22 23:10 46.29267 -69.60503 38070 ft 423 kts 255°
2026-04-22 23:11 46.27378 -69.68580 38072 ft 423 kts 255°
2026-04-22 23:11 46.25500 -69.76580 38067 ft 423 kts 255°
2026-04-22 23:12 46.23593 -69.84656 38065 ft 422 kts 255°
2026-04-22 23:12 46.21695 -69.92637 38061 ft 422 kts 255°
2026-04-22 23:13 46.19781 -70.00668 38060 ft 421 kts 255°
2026-04-22 23:13 46.17866 -70.08678 38057 ft 421 kts 255°
2026-04-22 23:14 46.15959 -70.16633 38051 ft 421 kts 255°
2026-04-22 23:14 46.14037 -70.24628 38051 ft 420 kts 255°
2026-04-22 23:15 46.12125 -70.32552 38047 ft 420 kts 255°
2026-04-22 23:15 46.10196 -70.40540 38044 ft 420 kts 255°
2026-04-22 23:16 46.08272 -70.48462 38042 ft 420 kts 255°
2026-04-22 23:16 46.06336 -70.56388 38038 ft 420 kts 255°
2026-04-22 23:17 46.04384 -70.64331 38038 ft 420 kts 255°
2026-04-22 23:17 46.02437 -70.72240 37699 ft 419 kts 256°
2026-04-22 23:18 46.01472 -70.76150 37431 ft 418 kts 256°
2026-04-22 23:18 46.00496 -70.80092 37176 ft 417 kts 256°
2026-04-22 23:18 45.99574 -70.84054 36909 ft 411 kts 261°
2026-04-22 23:18 45.99064 -70.88003 36466 ft 400 kts 270°
2026-04-22 23:19 45.98954 -70.91984 35984 ft 393 kts 274°
2026-04-22 23:19 45.98888 -70.95855 35485 ft 390 kts 274°
2026-04-22 23:19 45.98809 -70.99745 34990 ft 386 kts 274°
2026-04-22 23:19 45.98725 -71.03607 34479 ft 384 kts 275°
2026-04-22 23:20 45.98643 -71.07430 33954 ft 381 kts 275°
2026-04-22 23:20 45.98560 -71.11181 33414 ft 377 kts 275°
2026-04-22 23:20 45.98472 -71.14945 32912 ft 372 kts 275°
2026-04-22 23:20 45.98383 -71.18638 32426 ft 367 kts 275°
2026-04-22 23:21 45.98294 -71.22306 31938 ft 363 kts 275°
2026-04-22 23:21 45.98210 -71.25873 31471 ft 358 kts 276°
2026-04-22 23:21 45.98131 -71.29445 31001 ft 354 kts 276°
2026-04-22 23:21 45.98054 -71.32979 30547 ft 350 kts 276°
2026-04-22 23:22 45.97973 -71.36431 30112 ft 346 kts 276°
2026-04-22 23:22 45.97889 -71.39872 29622 ft 341 kts 276°
2026-04-22 23:22 45.97801 -71.43280 29200 ft 335 kts 276°
2026-04-22 23:22 45.97711 -71.46567 28793 ft 330 kts 276°
2026-04-22 23:23 45.97624 -71.49851 28400 ft 324 kts 276°
2026-04-22 23:23 45.97544 -71.53071 28007 ft 319 kts 276°
2026-04-22 23:23 45.97469 -71.56304 27620 ft 334 kts 276°
2026-04-22 23:23 45.97398 -71.59703 27207 ft 349 kts 275°
2026-04-22 23:24 45.97316 -71.63223 26781 ft 352 kts 275°
2026-04-22 23:24 45.97219 -71.66754 26350 ft 351 kts 274°
2026-04-22 23:24 45.97118 -71.70211 25934 ft 349 kts 274°
2026-04-22 23:24 45.97013 -71.73699 25512 ft 347 kts 274°
2026-04-22 23:25 45.96913 -71.76998 25110 ft 345 kts 274°
2026-04-22 23:25 45.96816 -71.80406 24701 ft 343 kts 274°
2026-04-22 23:25 45.96723 -71.83820 24287 ft 340 kts 274°
2026-04-22 23:25 45.96630 -71.87208 23874 ft 338 kts 274°
2026-04-22 23:26 45.96534 -71.90583 23440 ft 336 kts 273°
2026-04-22 23:26 45.96434 -71.93932 23004 ft 335 kts 273°
2026-04-22 23:26 45.96334 -71.97282 22596 ft 333 kts 273°
2026-04-22 23:26 45.96235 -72.00617 22193 ft 332 kts 273°
2026-04-22 23:27 45.96137 -72.03929 21792 ft 331 kts 273°
2026-04-22 23:27 45.96041 -72.07194 21398 ft 329 kts 273°
2026-04-22 23:27 45.95942 -72.10490 21002 ft 328 kts 273°
2026-04-22 23:27 45.95840 -72.13768 20607 ft 327 kts 272°
2026-04-22 23:28 45.95735 -72.17029 20204 ft 325 kts 272°
2026-04-22 23:28 45.95629 -72.20244 19815 ft 324 kts 272°
2026-04-22 23:28 45.95522 -72.23496 19419 ft 323 kts 272°
2026-04-22 23:28 45.95420 -72.26730 19030 ft 322 kts 272°
2026-04-22 23:29 45.95316 -72.29899 18648 ft 321 kts 272°
2026-04-22 23:29 45.95211 -72.33105 18261 ft 320 kts 272°
2026-04-22 23:29 45.95105 -72.36297 17842 ft 319 kts 272°
2026-04-22 23:29 45.94932 -72.39474 17461 ft 321 kts 264°
2026-04-22 23:30 45.94224 -72.42553 17062 ft 329 kts 250°
2026-04-22 23:30 45.93150 -72.45461 16664 ft 329 kts 248°
2026-04-22 23:30 45.92084 -72.48315 16277 ft 327 kts 248°
2026-04-22 23:30 45.91008 -72.51191 15878 ft 325 kts 248°
2026-04-22 23:31 45.89938 -72.54057 15483 ft 324 kts 248°
2026-04-22 23:31 45.88884 -72.56877 15096 ft 322 kts 248°
2026-04-22 23:31 45.87824 -72.59710 14708 ft 321 kts 248°
2026-04-22 23:31 45.86767 -72.62533 14315 ft 319 kts 248°
2026-04-22 23:32 45.85718 -72.65341 13933 ft 317 kts 247°
2026-04-22 23:32 45.84689 -72.68091 13518 ft 316 kts 247°
2026-04-22 23:32 45.83649 -72.70872 13140 ft 315 kts 247°
2026-04-22 23:32 45.82605 -72.73657 12755 ft 314 kts 246°
2026-04-22 23:33 45.81571 -72.76414 12372 ft 313 kts 246°
2026-04-22 23:33 45.80551 -72.79125 11993 ft 312 kts 246°
2026-04-22 23:33 45.79520 -72.81865 11622 ft 311 kts 245°
2026-04-22 23:33 45.78491 -72.84597 11245 ft 310 kts 245°
2026-04-22 23:34 45.77478 -72.87280 10877 ft 309 kts 245°
2026-04-22 23:34 45.76460 -72.89972 10582 ft 301 kts 245°
2026-04-22 23:34 45.75493 -72.92507 10376 ft 279 kts 245°
2026-04-22 23:34 45.74573 -72.94921 9885 ft 275 kts 245°
2026-04-22 23:35 45.73661 -72.97332 9467 ft 274 kts 244°
2026-04-22 23:35 45.72771 -72.99687 9137 ft 271 kts 244°
2026-04-22 23:35 45.71997 -73.02123 8804 ft 266 kts 255°
2026-04-22 23:35 45.71641 -73.04710 8488 ft 264 kts 264°
2026-04-22 23:36 45.71375 -73.07311 8166 ft 263 kts 263°
2026-04-22 23:36 45.71106 -73.09850 8015 ft 261 kts 263°
2026-04-22 23:36 45.70824 -73.12396 8018 ft 263 kts 260°
2026-04-22 23:36 45.70371 -73.14938 8015 ft 263 kts 257°
2026-04-22 23:37 45.69909 -73.17476 8013 ft 263 kts 257°
2026-04-22 23:37 45.69449 -73.20019 7873 ft 266 kts 257°
2026-04-22 23:37 45.68986 -73.22582 7394 ft 266 kts 257°
2026-04-22 23:37 45.68522 -73.25119 7092 ft 260 kts 257°
2026-04-22 23:38 45.68068 -73.27605 6523 ft 256 kts 257°
2026-04-22 23:38 45.67627 -73.30035 5811 ft 255 kts 256°
2026-04-22 23:38 45.67183 -73.32485 5128 ft 252 kts 255°
2026-04-22 23:38 45.66755 -73.34833 4800 ft 237 kts 255°
2026-04-22 23:39 45.66343 -73.37084 4452 ft 229 kts 255°
2026-04-22 23:39 45.65957 -73.39185 4384 ft 216 kts 255°
2026-04-22 23:39 45.65572 -73.41261 4299 ft 214 kts 255°
2026-04-22 23:39 45.65197 -73.43294 4200 ft 204 kts 254°
2026-04-22 23:40 45.64856 -73.45152 4140 ft 187 kts 254°
2026-04-22 23:40 45.64529 -73.46926 4042 ft 182 kts 254°
2026-04-22 23:40 45.64316 -73.48086 3992 ft 181 kts 254°
2026-04-22 23:40 45.63994 -73.49834 3999 ft 181 kts 254°
2026-04-22 23:41 45.63568 -73.52150 4003 ft 182 kts 254°
2026-04-22 23:41 45.63326 -73.53297 4003 ft 181 kts 247°
2026-04-22 23:41 45.62628 -73.54775 3881 ft 175 kts 224°
2026-04-22 23:41 45.61467 -73.56306 3610 ft 170 kts 223°
2026-04-22 23:42 45.60882 -73.57079 3493 ft 170 kts 223°
2026-04-22 23:42 45.60025 -73.58209 3249 ft 169 kts 223°
2026-04-22 23:42 45.59159 -73.59350 3019 ft 169 kts 222°
2026-04-22 23:42 45.58296 -73.60488 2786 ft 169 kts 222°
2026-04-22 23:43 45.57445 -73.61609 2562 ft 168 kts 222°
2026-04-22 23:43 45.56586 -73.62740 2338 ft 168 kts 222°
2026-04-22 23:43 45.55736 -73.63859 2098 ft 160 kts 221°
2026-04-22 23:43 45.54960 -73.64881 1882 ft 145 kts 221°
2026-04-22 23:44 45.54241 -73.65826 1701 ft 140 kts 221°
2026-04-22 23:44 45.53525 -73.66766 1510 ft 138 kts 221°
2026-04-22 23:44 45.52822 -73.67691 1319 ft 137 kts 221°
2026-04-22 23:44 45.52120 -73.68612 1129 ft 137 kts 221°
2026-04-22 23:45 45.51426 -73.69524 953 ft 137 kts 220°
2026-04-22 23:45 45.50717 -73.70454 778 ft 138 kts 221°
2026-04-22 23:45 45.50007 -73.71386 606 ft 138 kts 221°
2026-04-22 23:45 45.49303 -73.72309 420 ft 138 kts 222°
2026-04-22 23:46 45.48592 -73.73242 240 ft 138 kts 221°
2026-04-22 23:46 45.47892 -73.74159 120 ft 128 kts 222°
2026-04-22 23:46 45.47363 -73.74853 118 ft 76 kts 223°
2026-04-22 23:46 45.47150 -73.75136 118 ft 36 kts 223°
2026-04-22 23:47 45.46965 -73.75375 114 ft 35 kts 221°
2026-04-22 23:47 45.46767 -73.75571 118 ft 34 kts 204°
2026-04-22 23:47 45.46591 -73.75633 117 ft 23 kts 192°
2026-04-22 23:47 45.46510 -73.75658 114 ft 3 kts 193°
2026-04-22 23:48 45.46489 -73.75665 116 ft 3 kts 193°
2026-04-22 23:48 45.46459 -73.75675 114 ft 13 kts 193°
2026-04-22 23:48 45.46251 -73.75733 114 ft 28 kts 181°
2026-04-22 23:48 45.46138 -73.75622 115 ft 16 kts 103°
2026-04-22 23:49 45.46137 -73.75449 116 ft 19 kts 88°
2026-04-22 23:49 45.46142 -73.75250 114 ft 21 kts 88°
2026-04-22 23:49 45.46147 -73.75031 116 ft 23 kts 88°
2026-04-22 23:49 45.46149 -73.74901 116 ft 0 kts 89°
2026-04-22 23:50 45.46151 -73.74875 116 ft 9 kts 85°
2026-04-22 23:50 45.46155 -73.74790 116 ft 8 kts 85°
2026-04-22 23:50 45.46159 -73.74714 115 ft 7 kts 86°
2026-04-22 23:50 45.46160 -73.74648 116 ft 6 kts 91°
2026-04-22 23:51 45.46150 -73.74588 113 ft 9 kts 116°
2026-04-22 23:51 45.46079 -73.74488 116 ft 16 kts 138°
2026-04-22 23:51 45.46011 -73.74400 113 ft 13 kts 135°
2026-04-22 23:51 45.45935 -73.74306 115 ft 16 kts 160°
2026-04-22 23:52 45.45855 -73.74328 115 ft 13 kts 204°
2026-04-22 23:52 45.45788 -73.74414 115 ft 12 kts 235°
2026-04-22 23:52 45.45764 -73.74470 115 ft 0 kts 238°
2026-04-22 23:53 45.45756 -73.74489 116 ft 9 kts 239°
2026-04-22 23:53 45.45758 -73.74535 115 ft 1 kts 341°
2026-04-22 23:53 45.45771 -73.74532 115 ft 2 kts
2026-04-22 23:53 45.45779 -73.74535 115 ft 1 kts 347°
2026-04-22 23:54 45.45784 -73.74537 116 ft 0 kts 344°
2026-04-22 23:54 45.45787 -73.74538 116 ft 2 kts 342°
2026-04-22 23:54 45.45794 -73.74542 116 ft 0 kts 339°
2026-04-22 23:54 45.45794 -73.74543 116 ft 0 kts 339°
2026-04-22 23:55 45.45796 -73.74544 115 ft 0 kts 339°